TimeAKST,TemperatureF,Dew PointF,Humidity,Sea Level PressureIn,VisibilityMPH,Wind Direction,Wind SpeedMPH,Gust SpeedMPH,PrecipitationIn,Events,Conditions,WindDirDegrees,DateUTC
12:16 AM,37.4,28.4,70,29.38,10.0,East,16.1,21.9,N/A,,Overcast,90,2013-03-07 09:16:00
12:36 AM,37.4,28.4,70,29.37,10.0,East,16.1,21.9,N/A,,Overcast,90,2013-03-07 09:36:00
12:56 AM,37.4,26.6,65,29.34,10.0,East,15.0,27.6,N/A,,Overcast,90,2013-03-07 09:56:00
1:16 AM,37.4,26.6,65,29.33,10.0,East,15.0,20.7,N/A,,Scattered Clouds,90,2013-03-07 10:16:00
1:36 AM,37.4,26.6,65,29.31,10.0,East,16.1,23.0,N/A,,Scattered Clouds,90,2013-03-07 10:36:00
1:56 AM,37.4,26.6,65,29.27,10.0,East,16.1,26.5,N/A,,Mostly Cloudy,80,2013-03-07 10:56:00
2:16 AM,37.4,26.6,65,29.25,10.0,East,15.0,25.3,N/A,,Scattered Clouds,90,2013-03-07 11:16:00
2:36 AM,37.4,24.8,60,29.23,10.0,East,21.9,28.8,N/A,,Mostly Cloudy,90,2013-03-07 11:36:00
2:56 AM,37.4,24.8,60,29.21,10.0,East,16.1,26.5,N/A,,Scattered Clouds,90,2013-03-07 11:56:00
3:16 AM,39.2,24.8,56,29.20,10.0,East,20.7,31.1,N/A,,Clear,100,2013-03-07 12:16:00
3:36 AM,39.2,24.8,56,29.19,10.0,East,21.9,28.8,N/A,,Mostly Cloudy,100,2013-03-07 12:36:00
3:56 AM,39.2,24.8,56,29.18,10.0,East,23.0,29.9,N/A,,Overcast,100,2013-03-07 12:56:00
4:16 AM,39.2,24.8,56,29.16,10.0,ESE,23.0,29.9,N/A,,Overcast,110,2013-03-07 13:16:00
4:36 AM,39.2,24.8,56,29.16,10.0,East,19.6,29.9,N/A,,Overcast,100,2013-03-07 13:36:00
4:56 AM,39.2,24.8,56,29.16,10.0,East,23.0,29.9,N/A,,Overcast,100,2013-03-07 13:56:00
5:16 AM,39.2,24.8,56,29.16,10.0,East,23.0,27.6,N/A,,Overcast,100,2013-03-07 14:16:00
5:36 AM,39.2,26.6,61,29.15,10.0,ESE,25.3,33.4,N/A,,Overcast,110,2013-03-07 14:36:00
5:56 AM,39.2,26.6,61,29.14,10.0,East,23.0,33.4,N/A,,Overcast,90,2013-03-07 14:56:00
6:16 AM,39.2,26.6,61,29.13,10.0,East,19.6,25.3,N/A,,Overcast,90,2013-03-07 15:16:00
6:36 AM,37.4,26.6,65,29.12,10.0,East,19.6,26.5,N/A,,Overcast,90,2013-03-07 15:36:00
6:56 AM,37.4,28.4,70,29.10,10.0,East,23.0,32.2,N/A,,Overcast,100,2013-03-07 15:56:00
7:16 AM,37.4,28.4,70,29.10,10.0,East,18.4,31.1,N/A,,Overcast,90,2013-03-07 16:16:00
7:36 AM,37.4,28.4,70,29.09,10.0,East,20.7,29.9,N/A,,Overcast,90,2013-03-07 16:36:00
7:56 AM,37.4,30.2,75,29.07,10.0,East,20.7,-,N/A,,Overcast,90,2013-03-07 16:56:00
8:16 AM,35.6,30.2,81,29.05,10.0,East,23.0,32.2,N/A,,Overcast,100,2013-03-07 17:16:00
8:36 AM,35.6,30.2,81,29.04,10.0,East,25.3,31.1,N/A,,Overcast,90,2013-03-07 17:36:00
8:56 AM,35.6,30.2,81,29.05,10.0,East,19.6,25.3,N/A,,Mostly Cloudy,80,2013-03-07 17:56:00
9:16 AM,35.6,30.2,81,29.02,10.0,East,17.3,23.0,N/A,,Overcast,90,2013-03-07 18:16:00
9:36 AM,35.6,30.2,81,29.04,10.0,ENE,8.1,16.1,N/A,,Overcast,70,2013-03-07 18:36:00
9:56 AM,35.6,30.2,81,29.04,10.0,ENE,12.7,21.9,N/A,,Overcast,70,2013-03-07 18:56:00
10:16 AM,35.6,30.2,81,29.03,10.0,East,15.0,19.6,N/A,,Overcast,100,2013-03-07 19:16:00
10:36 AM,35.6,30.2,81,29.02,10.0,East,16.1,19.6,N/A,,Overcast,100,2013-03-07 19:36:00
10:56 AM,35.6,30.2,81,29.01,10.0,ESE,20.7,26.5,N/A,,Overcast,110,2013-03-07 19:56:00
11:16 AM,35.6,30.2,81,29.02,10.0,East,13.8,23.0,N/A,,Overcast,90,2013-03-07 20:16:00
11:36 AM,35.6,30.2,81,29.01,10.0,East,18.4,23.0,N/A,,Overcast,100,2013-03-07 20:36:00
11:56 AM,35.6,32.0,87,29.01,10.0,East,10.4,18.4,N/A,,Mostly Cloudy,80,2013-03-07 20:56:00
12:16 PM,37.4,32.0,81,29.00,10.0,East,15.0,-,N/A,,Mostly Cloudy,100,2013-03-07 21:16:00
12:36 PM,37.4,30.2,75,29.01,10.0,ESE,16.1,19.6,N/A,,Overcast,120,2013-03-07 21:36:00
12:56 PM,37.4,30.2,75,29.00,10.0,ESE,18.4,25.3,N/A,,Overcast,120,2013-03-07 21:56:00
1:16 PM,37.4,30.2,75,29.00,10.0,ESE,17.3,20.7,N/A,,Overcast,120,2013-03-07 22:16:00
1:36 PM,37.4,30.2,75,29.00,10.0,ESE,13.8,19.6,N/A,,Overcast,120,2013-03-07 22:36:00
1:56 PM,39.2,30.2,70,28.99,10.0,ESE,15.0,21.9,N/A,,Overcast,120,2013-03-07 22:56:00
2:16 PM,39.2,30.2,70,28.99,10.0,SE,15.0,20.7,N/A,,Overcast,130,2013-03-07 23:16:00
2:36 PM,39.2,30.2,70,28.99,10.0,SE,18.4,28.8,N/A,,Overcast,130,2013-03-07 23:36:00
2:56 PM,39.2,30.2,70,28.99,10.0,ESE,16.1,26.5,N/A,,Overcast,120,2013-03-07 23:56:00
3:16 PM,39.2,30.2,70,28.99,10.0,SE,15.0,24.2,N/A,,Overcast,130,2013-03-08 00:16:00
3:36 PM,-9999,-9999,N/A,28.98,10.0,ESE,20.7,29.9,N/A,,Overcast,120,2013-03-08 00:36:00
3:56 PM,39.2,30.2,70,28.98,10.0,East,18.4,26.5,N/A,,Overcast,100,2013-03-08 00:56:00
4:16 PM,39.2,30.2,70,28.98,10.0,East,17.3,23.0,N/A,,Overcast,100,2013-03-08 01:16:00
4:36 PM,37.4,30.2,75,28.97,10.0,East,16.1,-,N/A,,Overcast,100,2013-03-08 01:36:00
4:56 PM,37.4,30.2,75,28.97,10.0,East,17.3,-,N/A,,Overcast,100,2013-03-08 01:56:00
5:16 PM,39.2,30.2,70,28.97,10.0,East,16.1,-,N/A,,Overcast,100,2013-03-08 02:16:00
5:36 PM,39.2,30.2,70,28.96,10.0,ESE,23.0,29.9,N/A,,Overcast,110,2013-03-08 02:36:00
5:56 PM,-9999,-9999,N/A,28.94,10.0,ESE,29.9,34.5,N/A,,Overcast,110,2013-03-08 02:56:00
6:16 PM,39.2,28.4,65,28.95,10.0,ESE,17.3,27.6,N/A,,Mostly Cloudy,120,2013-03-08 03:16:00
6:36 PM,39.2,28.4,65,28.95,10.0,SE,17.3,23.0,N/A,,Scattered Clouds,130,2013-03-08 03:36:00
6:56 PM,-9999,-9999,N/A,28.94,10.0,ESE,20.7,36.8,N/A,,Partly Cloudy,120,2013-03-08 03:56:00
7:16 PM,39.2,28.4,65,28.97,10.0,ESE,20.7,32.2,N/A,,Clear,120,2013-03-08 04:16:00
7:36 PM,39.2,28.4,65,28.99,10.0,ESE,13.8,20.7,N/A,,Mostly Cloudy,110,2013-03-08 04:36:00
7:56 PM,39.2,28.4,65,28.99,10.0,ESE,19.6,27.6,N/A,,Mostly Cloudy,120,2013-03-08 04:56:00
8:16 PM,39.2,28.4,65,28.99,10.0,ESE,23.0,28.8,N/A,,Mostly Cloudy,120,2013-03-08 05:16:00
8:36 PM,-9999,-9999,N/A,28.99,10.0,ESE,16.1,27.6,N/A,,Mostly Cloudy,120,2013-03-08 05:36:00
8:56 PM,-9999,-9999,N/A,28.99,10.0,ESE,20.7,28.8,N/A,,Scattered Clouds,120,2013-03-08 05:56:00
9:16 PM,39.2,28.4,65,29.02,10.0,SE,9.2,26.5,N/A,,Scattered Clouds,140,2013-03-08 06:16:00
9:36 PM,39.2,28.4,65,29.03,10.0,SE,13.8,19.6,N/A,,Mostly Cloudy,130,2013-03-08 06:36:00
9:56 PM,39.2,26.6,61,29.03,10.0,SE,17.3,24.2,N/A,,Overcast,130,2013-03-08 06:56:00
10:16 PM,-9999,-9999,N/A,29.02,10.0,ESE,23.0,29.9,N/A,,Overcast,120,2013-03-08 07:16:00
10:36 PM,-9999,-9999,N/A,29.02,10.0,ESE,21.9,33.4,N/A,,Mostly Cloudy,120,2013-03-08 07:36:00
10:56 PM,-9999,-9999,N/A,29.03,10.0,ESE,18.4,25.3,N/A,,Scattered Clouds,120,2013-03-08 07:56:00
11:16 PM,-9999,-9999,N/A,29.03,10.0,ESE,21.9,29.9,N/A,,Overcast,120,2013-03-08 08:16:00
11:36 PM,-9999,-9999,N/A,29.03,10.0,ESE,25.3,36.8,N/A,,Mostly Cloudy,120,2013-03-08 08:36:00
11:56 PM,-9999,-9999,N/A,29.03,10.0,ESE,23.0,36.8,N/A,,Mostly Cloudy,120,2013-03-08 08:56:00